Location: New Canada
(47.1017°N, 68.5042°W)
Time: 23:15:05
(UTC+00:00)

RS-44 - Pass Details

Date: 04 April 2023
Orbit: 1175 x 1510 km, 82.5° (Epoch: 02 June)

Event Time Altitude Azimuth Distance (km) Brightness Sun altitude
Rises 04:55:01 0° 352° (N) 4,404 ? -37.2°
Reaches altitude 10° 04:57:50 10° 356° (N) 3,471 ? -37.1°
Maximum altitude 05:06:06 61° 76° (ENE) 1,623 ? -36.9°
Enters shadow 05:06:24 61° 85° (E) 1,629 ? -36.9°
